Find WHDW 09-02

NORAD ID: 65229 Int'l Des: 2025-178 Owner: ZXW Country: CN Constellation: xingwang operational
LEOCIRCULARPOLARONEWEB_TYPE

現在のビュー

3D地球を読み込み中...

About WHDW 09-02

WHDW 09-02 (NORAD 65229) is a xingwang constellation satellite launched Aug 17, 2025 by ZXW of CN. It operates in LEO, CIRCULAR, POLAR, ONEWEB_TYPE orbit with a mass of 800.00 kg.

WHDW 09-02について

説明を読み込み中...

次回通過

Passes for default location (London). Set your location on the main map for personalized predictions.

高度履歴

Loading altitude history...

軌道要素

1 65229U 25178B 26175.22449506 .00000015 00000-0 79195-6 0 9993
2 65229 86.4999 11.2051 0001914 91.1934 268.9419 13.24412129 41242
Epoch: Jun 24, 2026 • Age: 6 hours

現在のステータス

高度 1177.8 km
速度 7.27 km/s
衛星直下点 64.31°N, 61.5°W
打ち上げ日 Aug 17, 2025
運用期間 0.8 years
タイプ other

技術仕様

分類 Payload
質量 800.00 kg
乾燥質量 800.00 kg
総質量 800.00 kg
長さ 3.00 m
直径 1.00 m
スパン 10.00 m
形状 Box + 2 Pan
製造者 CAST
バスタイプ Xingwang C
フェーズステータス In Orbit
所有者/国 ZXW/CN

Most Searched